Retour au catalogue

THOR ABLESTAR DEB

ActifLEO
NORAD 144·DEBRIS·🇺🇸 United States

Lancé Jun 29, 1961 depuis Cape Canaveral Space Force Station

Loading…

Prochains Passages (prochaines 24 heures)

TLE

FraisSource: Space-Track

Époque: Sep 9, 2026, 05:46 UTC

1 00144U 61015AE  26252.24038072  .00000133  00000-0  16514-3 0  9992
2 00144  66.4993 180.0222 0048037 299.6843  59.9456 13.91713451296343

Suivez THOR ABLESTAR DEB en temps réel avec AllMySat

Download on the App Store